[ hide orbit diagram ]
For accurate long-term ephemerides, please instead use our Horizons system.This orbit viewer was implemented using two-body methods, and hence should not be used for determining accurate long-term trajectories (over several years or decades) or planetary encounter circumstances.
Orbital Elements at Epoch 2459000.5 (2020-May-31.0) TDB
Reference: JPL 13 (heliocentric ecliptic J2000)
Element | Value | Uncertainty (1-sigma) | Units |
e | .07607566176105839 | 1.1394e-07 | |
a | 3.044343849665454 | 5.5985e-08 | au |
q | 2.812743376673946 | 3.2873e-07 | au |
i | 7.975025475474866 | 1.0623e-05 | deg |
node | 327.1450572859137 | 6.0777e-05 | deg |
peri | 215.925534373585 | 8.1063e-05 | deg |
M | 228.0290434689094 | 5.6174e-05 | deg |
tp | 2459711.737825207057 (2022-May-12.23782521) | 0.00031228 | TDB |
period | 1940.166410889197 5.31 | 5.3519e-05 1.465e-07 | d yr |
n | .1855510939574551 | 5.1184e-09 | deg/d |
Q | 3.275944322656961 | 6.0244e-08 | au |
|
| | Orbit Determination Parameters
Additional Information
|
[ show covariance matrix ]
Physical Parameter Table
Parameter |
Symbol |
Value |
Units |
Sigma |
Reference |
Notes |
absolute magnitude |
H |
16.5 |
|
n/a |
MPO455947 |
|
|
413730 (2006 BD139) Discovered 2006-Jan-28 by Mt. Lemmon Survey at Mount Lemmon |
Reference: | Last Updated: 2014-11-10 |
|
[ show close-approach data ]
|